Winchester, TN

3:14 PM CDT on August 20, 2017 (GMT -0500)
Winchester Municipal

Weather History for KBGF - October, 2012

Change the Weather History Date:

Tuesday, October 30, 2012

  Actual Average (KTHA) Record (KTHA)
Temperature  
Mean Temperature 45 °F -  
Max Temperature 51 °F 68 °F 82 °F (2016)
Min Temperature 39 °F 45 °F 33 °F (2014)
Degree Days  
Heating Degree Days 20    
Moisture  
Dew Point 24 °F    
Average Humidity 47    
Maximum Humidity 61    
Minimum Humidity 26    
Precipitation  
Precipitation 0.00 in - - ()
Sea Level Pressure  
Sea Level Pressure 29.82 in    
Wind  
Wind Speed 9 mph ()    
Max Wind Speed 17 mph    
Max Gust Speed 20 mph    
Visibility 10.0 miles    
Events      
Averages and records for this station are not official NWS values.
T = Trace of Precipitation, MM = Missing Value Source: Averaged Metar Reports

Daily Weather History Graph

Daily Weather History Graph

Search for Another Location

Airport or City:

Trip Planner

Search our weather history database for the weather conditions in past years. The results will help you decide how hot, cold, wet, or windy it might be!

Date:

Astronomy

Oct. 30, 2012 Rise Set
Actual Time 8:04 AM EDT 6:51 PM EDT
Civil Twilight 7:37 AM EDT 7:17 PM EDT
Nautical Twilight 7:08 AM EDT 7:47 PM EDT
Astronomical Twilight 6:38 AM EDT 8:16 PM EDT
Moon 7:23 PM EDT (10/30) 8:47 AM EDT (10/30)
Length of Visible Light 11h 39m
Length of Day
10h 47m
Full, 99% of the Moon is Illuminated
Oct 30
Full
Nov 6
Last Quarter
Nov 13
New
Nov 20
First Quarter
Nov 28
Full

Hourly Weather History & Observations

Time (EDT) Temp. Windchill Dew Point Humidity Pressure Visibility Wind Dir Wind Speed Gust Speed Precip Events Conditions
12:15 AM 44.6 °F 39.7 °F 28.4 °F 53% 29.89 in 10.0 mi NW 9.2 mph - N/A   Clear
12:35 AM 44.6 °F 40.2 °F 28.4 °F 53% 29.89 in 10.0 mi NW 8.1 mph - N/A   Clear
12:55 AM 42.8 °F 37.5 °F 28.4 °F 57% 29.88 in 10.0 mi NW 9.2 mph 19.6 mph N/A   Clear
1:15 AM 42.8 °F 37.5 °F 28.4 °F 57% 29.87 in 10.0 mi NW 9.2 mph - N/A   Clear
1:35 AM 42.8 °F 36.6 °F 28.4 °F 57% 29.86 in 10.0 mi NW 11.5 mph - N/A   Clear
1:55 AM 42.8 °F 37.5 °F 28.4 °F 57% 29.86 in 10.0 mi NW 9.2 mph - N/A   Clear
2:15 AM 42.8 °F 35.4 °F 28.4 °F 57% 29.85 in 10.0 mi NW 15.0 mph - N/A   Clear
2:35 AM 42.8 °F 36.6 °F 28.4 °F 57% 29.84 in 10.0 mi NW 11.5 mph - N/A   Clear
2:55 AM 42.8 °F 37.0 °F 28.4 °F 57% 29.83 in 10.0 mi NW 10.4 mph - N/A   Clear
3:35 AM 41.0 °F 35.2 °F 28.4 °F 61% 29.83 in 10.0 mi NW 9.2 mph - N/A   Clear
3:55 AM 41.0 °F 34.3 °F 26.6 °F 57% 29.82 in 10.0 mi NW 11.5 mph - N/A   Clear
4:15 AM 41.0 °F 35.2 °F 26.6 °F 57% 29.82 in 10.0 mi NW 9.2 mph - N/A   Clear
4:55 AM 39.2 °F 33.0 °F 26.6 °F 61% 29.81 in 10.0 mi NW 9.2 mph - N/A   Clear
5:15 AM 39.2 °F 32.5 °F 26.6 °F 61% 29.81 in 10.0 mi NW 10.4 mph - N/A   Clear
5:35 AM 39.2 °F 31.6 °F 26.6 °F 61% 29.81 in 10.0 mi NW 12.7 mph - N/A   Clear
5:55 AM 39.2 °F 32.5 °F 24.8 °F 56% 29.82 in 10.0 mi NW 10.4 mph - N/A   Clear
6:15 AM 39.2 °F 32.0 °F 24.8 °F 56% 29.82 in 10.0 mi NW 11.5 mph - N/A   Clear
6:35 AM 39.2 °F 32.0 °F 26.6 °F 61% 29.82 in 10.0 mi NW 11.5 mph - N/A   Clear
6:55 AM 39.2 °F 33.6 °F 26.6 °F 61% 29.82 in 10.0 mi WNW 8.1 mph - N/A   Clear
7:15 AM 39.2 °F 33.6 °F 26.6 °F 61% 29.82 in 10.0 mi NW 8.1 mph - N/A   Clear
7:35 AM 39.2 °F 33.0 °F 26.6 °F 61% 29.82 in 10.0 mi NW 9.2 mph - N/A   Clear
7:55 AM 39.2 °F 33.6 °F 26.6 °F 61% 29.82 in 10.0 mi NW 8.1 mph - N/A   Clear
8:15 AM 39.2 °F 33.0 °F 26.6 °F 61% 29.82 in 10.0 mi NW 9.2 mph - N/A   Clear
8:35 AM 39.2 °F 33.6 °F 26.6 °F 61% 29.82 in 10.0 mi NW 8.1 mph - N/A   Clear
8:55 AM 39.2 °F 33.6 °F 24.8 °F 56% 29.82 in 10.0 mi NW 8.1 mph - N/A   Clear
9:15 AM 39.2 °F 33.0 °F 24.8 °F 56% 29.83 in 10.0 mi WNW 9.2 mph - N/A   Clear
9:35 AM 41.0 °F 34.3 °F 24.8 °F 53% 29.83 in 10.0 mi NW 11.5 mph - N/A   Clear
9:55 AM 41.0 °F 34.7 °F 24.8 °F 53% 29.83 in 10.0 mi NW 10.4 mph - N/A   Clear
10:15 AM 42.8 °F 37.0 °F 24.8 °F 49% 29.83 in 10.0 mi WNW 10.4 mph - N/A   Clear
10:35 AM 42.8 °F 35.8 °F 24.8 °F 49% 29.82 in 10.0 mi WNW 13.8 mph - N/A   Clear
10:55 AM 42.8 °F 36.6 °F 24.8 °F 49% 29.82 in 10.0 mi WNW 11.5 mph - N/A   Clear
11:15 AM 44.6 °F 38.8 °F 24.8 °F 46% 29.82 in 10.0 mi WNW 11.5 mph - N/A   Clear
11:35 AM 44.6 °F 38.8 °F 24.8 °F 46% 29.82 in 10.0 mi WNW 11.5 mph - N/A   Clear
11:55 AM 46.4 °F 40.7 °F 24.8 °F 43% 29.82 in 10.0 mi West 12.7 mph - N/A   Clear
12:15 PM 46.4 °F 40.4 °F 24.8 °F 43% 29.82 in 10.0 mi NW 13.8 mph - N/A   Clear
12:35 PM 46.4 °F 40.7 °F 23.0 °F 40% 29.81 in 10.0 mi NW 12.7 mph - N/A   Clear
12:55 PM 48.2 °F - 23.0 °F 37% 29.81 in 10.0 mi WNW 13.8 mph - N/A   Clear
1:15 PM 48.2 °F - 21.2 °F 34% 29.80 in 10.0 mi WNW 15.0 mph - N/A   Clear
1:35 PM 50.0 °F - 19.4 °F 30% 29.80 in 10.0 mi WNW 13.8 mph - N/A   Clear
1:55 PM 51.8 °F - 19.4 °F 28% 29.79 in 10.0 mi WNW 16.1 mph - N/A   Clear
2:15 PM 51.8 °F - 17.6 °F 26% 29.79 in 10.0 mi NW 15.0 mph - N/A   Clear
2:35 PM 51.8 °F - 19.4 °F 28% 29.78 in 10.0 mi WNW 15.0 mph - N/A   Clear
2:55 PM 51.8 °F - 19.4 °F 28% 29.78 in 10.0 mi WNW 16.1 mph - N/A   Clear
3:15 PM 51.8 °F - 19.4 °F 28% 29.78 in 10.0 mi NW 13.8 mph - N/A   Clear
3:35 PM 51.8 °F - 19.4 °F 28% 29.78 in 10.0 mi NW 17.3 mph - N/A   Clear
3:55 PM 51.8 °F - 19.4 °F 28% 29.78 in 10.0 mi WNW 13.8 mph - N/A   Clear
4:15 PM 51.8 °F - 17.6 °F 26% 29.78 in 10.0 mi NW 13.8 mph - N/A   Clear
4:35 PM 51.8 °F - 19.4 °F 28% 29.78 in 10.0 mi NW 10.4 mph - N/A   Clear
4:55 PM 51.8 °F - 19.4 °F 28% 29.78 in 10.0 mi WNW 13.8 mph - N/A   Clear
5:15 PM 51.8 °F - 19.4 °F 28% 29.78 in 10.0 mi West 12.7 mph - N/A   Clear
5:35 PM 51.8 °F - 19.4 °F 28% 29.78 in 10.0 mi WNW 8.1 mph - N/A   Clear
5:55 PM 51.8 °F - 19.4 °F 28% 29.78 in 10.0 mi WNW 9.2 mph - N/A   Clear
6:15 PM 51.8 °F - 21.2 °F 30% 29.79 in 10.0 mi WNW 9.2 mph - N/A   Clear
6:35 PM 50.0 °F - 21.2 °F 32% 29.80 in 10.0 mi WNW 12.7 mph - N/A   Clear
6:55 PM 50.0 °F - 21.2 °F 32% 29.81 in 10.0 mi WNW 9.2 mph - N/A   Clear
7:15 PM 48.2 °F - 21.2 °F 34% 29.82 in 10.0 mi WNW 8.1 mph - N/A   Clear
7:35 PM 48.2 °F - 21.2 °F 34% 29.82 in 10.0 mi WNW 9.2 mph - N/A   Clear
7:55 PM 48.2 °F - 24.8 °F 40% 29.84 in 10.0 mi West 3.5 mph - N/A   Clear
8:15 PM 46.4 °F 44.3 °F 24.8 °F 43% 29.84 in 10.0 mi West 4.6 mph - N/A   Clear
8:35 PM 44.6 °F 43.1 °F 24.8 °F 46% 29.85 in 10.0 mi West 3.5 mph - N/A   Clear
8:55 PM 44.6 °F - 24.8 °F 46% 29.85 in 10.0 mi Calm Calm - N/A   Clear
9:15 PM 42.8 °F - 24.8 °F 49% 29.86 in 10.0 mi Calm Calm - N/A   Clear
9:35 PM 42.8 °F - 24.8 °F 49% 29.86 in 10.0 mi Calm Calm - N/A   Clear
9:55 PM 42.8 °F - 24.8 °F 49% 29.86 in 10.0 mi Calm Calm - N/A   Clear
10:15 PM 42.8 °F 41.1 °F 24.8 °F 49% 29.87 in 10.0 mi West 3.5 mph - N/A   Clear
10:35 PM 41.0 °F - 26.6 °F 57% 29.87 in 10.0 mi Calm Calm - N/A   Clear
10:55 PM 41.0 °F 39.0 °F 26.6 °F 57% 29.87 in 10.0 mi West 3.5 mph - N/A   Clear
11:15 PM 41.0 °F 38.0 °F 26.6 °F 57% 29.86 in 10.0 mi West 4.6 mph - N/A   Clear
11:35 PM 41.0 °F 38.0 °F 26.6 °F 57% 29.86 in 10.0 mi West 4.6 mph - N/A   Clear
11:55 PM 39.2 °F 35.9 °F 26.6 °F 61% 29.86 in 10.0 mi West 4.6 mph - N/A   Clear